Weather History for Cape Girardeau, MO

Change the Weather History Date:

Wednesday, May 22, 2013

  Actual Average Record
Temperature  
Mean Temperature 71 °F 68 °F  
Max Temperature 78 °F 80 °F 94 °F (1962)
Min Temperature 63 °F 57 °F 43 °F (1963)
Degree Days  
Heating Degree Days 0 1  
Month to date heating degree days 83 60  
Since 1 July heating degree days 4349 4378  
Cooling Degree Days 6 5  
Month to date cooling degree days 81 69  
Year to date cooling degree days 106 100  
Growing Degree Days 19 (Base 50)    
Moisture  
Dew Point 61 °F    
Average Humidity 76    
Maximum Humidity 93    
Minimum Humidity 58    
Precipitation  
Precipitation T in 0.16 in 1.90 in (1985)
Month to date precipitation 2.25 4.10  
Year to date precipitation 15.07 19.74  
Sea Level Pressure  
Sea Level Pressure 29.80 in    
Wind  
Wind Speed 10 mph (SW)    
Max Wind Speed 18 mph    
Max Gust Speed 24 mph    
Visibility 10 miles    
Events Rain    
T = Trace of Precipitation, MM = Missing Value Source: NWS Daily Summary

Daily Weather History Graph

Daily Weather History Graph

Search for Another Location

Airport:

Trip Planner

Search our weather history database for the weather conditions in past years. The results will help you decide how hot, cold, wet, or windy it might be!

Date:

Astronomy

May. 22, 2013 Rise Set
Actual Time 5:44 AM CDT 8:05 PM CDT
Civil Twilight 5:14 AM CDT 8:35 PM CDT
Nautical Twilight 4:38 AM CDT 9:12 PM CDT
Astronomical Twilight 3:58 AM CDT 9:52 PM CDT
Moon 5:31 PM CDT (5/22) 3:44 AM CDT (5/22)
Length of Visible Light 15h 21m
Length of Day
14h 21m
Waxing Gibbous, 91% of the Moon is Illuminated
May 22
Waxing Gibbous
May 24
Full
May 31
Last Quarter
Jun 8
New
Jun 16
First Quarter

Hourly Weather History & Observations

Time (CDT) Temp. Dew Point Humidity Pressure Visibility Wind Dir Wind Speed Gust Speed Precip Events Conditions
12:53 AM 66.9 °F 63.0 °F 87% 29.77 in 10.0 mi South 11.5 mph 19.6 mph 0.00 in Rain Light Rain
1:53 AM 64.9 °F 62.1 °F 90% 29.78 in 10.0 mi SW 9.2 mph - 0.00 in   Scattered Clouds
2:16 AM 64.4 °F 62.6 °F 94% 29.78 in 10.0 mi WSW 6.9 mph - N/A   Mostly Cloudy
2:23 AM 64.4 °F 62.6 °F 94% 29.78 in 10.0 mi SW 5.8 mph - N/A   Scattered Clouds
2:53 AM 64.0 °F 61.0 °F 90% 29.76 in 10.0 mi SSW 4.6 mph - N/A   Clear
3:53 AM 63.0 °F 60.1 °F 90% 29.75 in 10.0 mi South 8.1 mph - N/A   Clear
4:53 AM 63.0 °F 60.1 °F 90% 29.75 in 10.0 mi South 11.5 mph - N/A   Scattered Clouds
5:53 AM 64.0 °F 60.1 °F 87% 29.75 in 10.0 mi South 10.4 mph - N/A   Overcast
6:53 AM 64.0 °F 61.0 °F 90% 29.78 in 10.0 mi SSW 10.4 mph - N/A   Mostly Cloudy
7:14 AM 64.4 °F 60.8 °F 88% 29.79 in 10.0 mi SW 12.7 mph - N/A   Mostly Cloudy
7:53 AM 64.9 °F 62.1 °F 90% 29.79 in 10.0 mi SSW 11.5 mph - N/A   Overcast
8:14 AM 66.2 °F 62.6 °F 88% 29.80 in 10.0 mi SW 11.5 mph - N/A   Scattered Clouds
8:53 AM 68.0 °F 61.0 °F 78% 29.80 in 10.0 mi SW 12.7 mph - N/A   Scattered Clouds
9:53 AM 69.1 °F 62.1 °F 78% 29.81 in 10.0 mi SW 10.4 mph 18.4 mph N/A   Mostly Cloudy
10:27 AM 69.8 °F 62.6 °F 78% 29.83 in 10.0 mi WSW 12.7 mph - N/A   Mostly Cloudy
10:42 AM 69.8 °F 62.6 °F 78% 29.83 in 10.0 mi WSW 10.4 mph - N/A   Overcast
10:53 AM 70.0 °F 62.1 °F 76% 29.83 in 10.0 mi SW 8.1 mph - N/A   Overcast
11:53 AM 73.0 °F 62.1 °F 68% 29.82 in 10.0 mi WSW 8.1 mph - N/A   Partly Cloudy
12:53 PM 75.0 °F 62.1 °F 64% 29.81 in 10.0 mi WSW 10.4 mph - N/A   Partly Cloudy
1:53 PM 75.9 °F 62.1 °F 62% 29.81 in 10.0 mi SSW 9.2 mph - N/A   Scattered Clouds
2:53 PM 73.9 °F 61.0 °F 64% 29.81 in 10.0 mi SW 6.9 mph - N/A   Overcast
3:53 PM 75.9 °F 60.1 °F 58% 29.80 in 10.0 mi SW 17.3 mph 20.7 mph N/A   Overcast
4:53 PM 75.0 °F 59.0 °F 57% 29.79 in 10.0 mi SW 16.1 mph 21.9 mph N/A   Mostly Cloudy
5:53 PM 75.0 °F 59.0 °F 57% 29.78 in 10.0 mi WSW 11.5 mph 19.6 mph N/A   Partly Cloudy
6:53 PM 75.0 °F 61.0 °F 62% 29.79 in 10.0 mi SW 8.1 mph - N/A   Clear
7:53 PM 72.0 °F 61.0 °F 68% 29.80 in 10.0 mi SW 6.9 mph - N/A   Clear
8:53 PM 70.0 °F 61.0 °F 73% 29.81 in 10.0 mi SSW 9.2 mph - N/A   Scattered Clouds
9:53 PM 69.1 °F 62.1 °F 78% 29.83 in 10.0 mi SW 5.8 mph - N/A   Overcast
10:53 PM 66.9 °F 63.0 °F 87% 29.85 in 10.0 mi WSW 5.8 mph - N/A   Mostly Cloudy
11:53 PM 68.0 °F 57.0 °F 68% 29.88 in 10.0 mi NW 10.4 mph - N/A   Partly Cloudy